Location: Le Petit-Vavre
(46.5081°N, 1.5239°E)
Time: 06:35:25
(UTC+00:00)

Cosmos 1727 Rocket - Visible Passes

Search period start: 21 June 2021 00:00
Search period end: 01 July 2021 00:00
Orbit: 960 x 997 km, 82.9° (Epoch: 20 June)

Date Brightness Start Highest point End Pass type
(mag) Time Alt. Az. Time Alt. Az. Time Alt. Az.
21 Jun 4.7 20:54:53 10° SSW 21:01:05 59° WNW 21:07:17 10° N visible
21 Jun 6.9 22:46:45 10° WNW 22:47:59 11° NW 22:49:13 10° NW visible
22 Jun 5.6 21:22:02 10° SW 21:27:41 34° WNW 21:33:21 10° N visible
23 Jun 6.4 21:49:58 10° WSW 21:54:31 20° WNW 21:59:03 10° NNW visible
24 Jun 4.5 20:28:32 10° SSW 20:34:47 65° WNW 20:41:00 10° N visible
24 Jun 6.8 22:19:25 10° WNW 22:21:33 12° WNW 22:23:41 10° NW visible
25 Jun 5.5 20:55:35 10° SW 21:01:21 38° WNW 21:07:07 10° N visible
26 Jun 6.4 21:23:22 10° WSW 21:28:08 22° WNW 21:32:54 10° NNW visible
27 Jun 6.8 21:52:25 10° W 21:55:08 13° WNW 21:57:52 10° NNW visible
28 Jun 5.5 20:29:09 10° SW 20:35:01 41° WNW 20:40:53 10° N visible
29 Jun 6.4 20:56:48 10° WSW 21:01:46 24° WNW 21:06:44 10° NNW visible
30 Jun 6.8 21:25:32 10° W 21:28:44 14° WNW 21:31:56 10° NNW visible
